Location: Grabiec
(50.6184°N, 19.7544°E)
Time: 07:25:03
(UTC+00:00)

Daily predictions for brighter satellites

Satellite Brightness Start Highest point End
(mag) Time Altitude Azimuth Time Altitude Azimuth Time Altitude Azimuth
Cosmos 2322 Rocket 3.2 18:52:47 10° NNW 18:57:59 36° NE 19:03:11 10° ESE
NOSS 3-4 (A) 4.2 18:52:53 10° NW 18:59:13 56° NE 19:06:41 10° ESE
NOSS 3-4 (C) 4.2 18:53:30 10° NW 18:59:52 56° NE 19:07:20 10° ESE
Tsikada Rocket 4.0 18:54:09 10° N 19:00:20 73° E 19:06:28 10° SSE
DEBRIS 3.0 18:58:12 10° WSW 19:00:51 59° SSE 19:07:41 10° E
Meteor 2-12 Rocket 4.5 18:56:19 10° N 19:02:27 83° E 19:08:34 10° SSE
Meteor 1-31 Rocket 4.0 18:59:19 10° SSW 19:02:32 36° W 19:05:47 10° NNW
Cosmos 2237 4.4 18:56:47 10° NNW 19:02:33 79° WSW 19:08:16 10° SSE
Cosmos 2082 Rocket 2.2 18:57:53 10° SSW 19:03:35 79° ESE 19:09:19 10° NNE
Cosmos 2016 Rocket 4.0 18:58:08 10° S 19:04:23 84° E 19:10:35 10° N
Cosmos 2369 4.1 19:01:22 10° NW 19:07:03 66° WSW 19:12:42 10° SSE
ATLAS 2AS CENTAUR R/B 4.4 19:02:36 10° W 19:08:57 38° NNW 19:15:14 10° NE
CZ-4C R/B 3.1 19:08:45 10° WSW 19:13:05 48° NW 19:18:43 10° NE
CZ-4B R/B 3.6 19:15:19 10° SE 19:18:19 30° ENE 19:21:25 10° N
Cosmos 2151 3.3 19:15:02 10° N 19:19:02 48° ENE 19:22:59 10° SSE
USA 306 2.8 19:17:28 10° W 19:20:34 43° NNW 19:22:42 10° ENE
Cosmos 2098 Rocket 4.4 19:17:00 10° SE 19:20:37 23° E 19:23:53 10° NE
Ariane Rocket 3.7 19:19:01 10° SE 19:23:41 39° ENE 19:28:22 10° N
Cosmos 1626 Rocket 3.6 19:19:35 10° N 19:23:58 74° ENE 19:28:22 10° SSE
Cosmos 2278 3.9 19:19:38 10° NNW 19:25:22 67° ENE 19:30:44 11° SE
Cosmos 1782 3.6 19:25:17 10° SSW 19:28:42 47° WNW 19:32:07 10° N
Spot 2 Rocket 3.6 19:23:53 10° SSE 19:28:54 83° WSW 19:33:58 10° NNW
SL-16 R/B 2.2 19:23:45 10° NNW 19:29:28 86° ENE 19:34:53 11° SSE
Cosmos 1607 4.4 19:24:53 10° SW 19:31:02 68° NW 19:37:20 10° NE
ERS-1 Rocket 4.2 19:27:31 10° SSW 19:32:13 40° W 19:36:56 10° NNW
SPOT 3 Rocket 3.8 19:28:51 11° SSE 19:33:44 58° ENE 19:38:47 10° N
MOS 1-B 4.5 19:30:58 10° SSE 19:36:46 81° WSW 19:42:37 10° NNW
Cosmos 1980 Rocket 4.4 19:38:56 10° NW 19:43:00 21° W 19:47:03 10° SSW
Cosmos 2061 Rocket 4.2 19:37:33 10° SSW 19:43:47 80° W 19:50:10 10° N
CZ-4 R/B 3.9 19:42:43 10° SW 19:44:49 15° W 19:46:57 10° NW
USA 186 2.0 19:42:51 11° S 19:45:24 52° W 19:48:07 10° NNW
Cosmos 2228 4.1 19:42:34 10° SSW 19:46:30 44° WNW 19:50:27 10° N
USA 290 3.6 19:45:44 18° SE 19:46:45 21° ESE 19:49:10 10° NE
SL-08 R/B 3.7 19:42:21 10° N 19:47:10 68° WNW 19:51:51 10° SSW
CZ-4B R/B 3.5 19:43:25 14° SSE 19:47:27 61° ENE 19:52:16 10° N
COSMOS 2406 3.2 19:41:45 10° SSW 19:47:30 83° ESE 19:53:16 10° NNE
Cosmos 1933 3.2 19:45:11 10° S 19:48:57 66° E 19:52:44 10° NNE
ISS -3.5 19:48:08 10° W 19:51:29 72° N 19:54:51 10° E
Cosmos 1461 2.4 19:47:56 10° SW 19:51:39 80° SE 19:55:19 10° NE
Cosmos 1992 Rocket 4.3 19:46:33 10° SSW 19:51:45 70° WNW 19:56:58 10° NNE
NOSS 3 (A) 4.0 19:49:32 10° NW 19:51:47 81° SW 19:53:22 22° SE
Terra 3.6 19:48:44 10° SSW 19:52:46 28° W 19:56:50 10° NW
Okean 1 4.3 19:51:56 18° SE 19:53:34 24° E 19:56:32 10° NE
Meteor 1-20 Rocket 4.4 19:48:10 10° NNW 19:53:47 78° W 19:59:21 11° S
Okean O Rocket 2.4 19:53:03 10° S 19:57:10 46° W 20:01:20 10° NNW
Cosmos 1777 Rocket 4.0 19:53:59 10° NNW 19:59:15 78° ENE 20:03:12 18° SSE
Cosmos 2333 Rocket 2.5 19:54:04 10° NW 19:59:44 67° WSW 20:04:29 15° SSE
Cosmos 1544 Rocket 3.8 20:00:39 10° SSW 20:04:57 67° WNW 20:09:17 10° N
NOSS 3-3 (A) 4.4 20:00:40 10° WSW 20:05:57 62° NW 20:12:25 10° NE
Cosmos 1437 Rocket 2.8 20:03:55 10° SSW 20:07:27 68° WNW 20:11:04 10° N
Cosmos 1503 Rocket 4.0 20:04:00 10° NNW 20:09:13 73° ENE 20:12:49 20° SSE
Cosmos 2360 Rocket 2.2 20:04:07 10° NNW 20:09:50 90° WSW 20:13:59 19° SSE
Okean 1-7 Rocket 3.6 20:05:27 10° N 20:09:56 71° ENE 20:13:00 20° SSE
Cosmos 2034 Rocket 4.4 20:13:55 18° SSE 20:18:30 49° E 20:24:34 10° NNE
Okean-O 4.2 20:15:39 10° SSW 20:19:29 30° W 20:23:21 10° NNW
Cosmos 2333 4.2 20:14:04 10° NNW 20:19:50 89° SW 20:23:47 21° SSE
Cosmos 1486 Rocket 4.2 20:14:54 10° NNW 20:20:08 67° WSW 20:23:55 19° S
CZ-2C R/B 1.8 20:21:09 33° S 20:22:14 85° W 20:25:01 10° NNW
Cosmos 2219 Rocket 2.3 20:16:54 10° NNW 20:22:36 75° ENE 20:26:24 22° SE
Cosmos 1766 4.1 20:20:12 10° NNE 20:23:01 27° ENE 20:24:01 22° ESE
Cosmos 1354 Rocket 4.1 20:18:56 10° NNW 20:24:12 69° ENE 20:27:29 23° SE
Nadezhda 4 Rocket 4.0 20:24:45 10° N 20:30:54 86° W 20:35:27 19° S
IRS-1C Rocket 4.4 20:27:08 17° S 20:31:09 63° WSW 20:36:25 10° NNW
Cosmos 540 Rocket 3.7 20:28:07 20° S 20:31:27 50° ESE 20:36:24 10° NNE
Cosmos 1825 Rocket 3.5 20:29:56 10° NNW 20:34:18 80° W 20:36:52 24° S
Cosmos 1805 3.7 20:31:41 10° NNW 20:34:48 42° W 20:36:34 21° SSW
Meteor 2-10 4.4 20:33:05 10° NNW 20:38:47 69° W 20:42:50 20° S
Aureole 1 Rocket 4.1 20:34:23 10° NNW 20:40:05 65° ENE 20:44:26 23° SE
Cosmos 1953 Rocket 3.5 20:36:43 10° N 20:41:05 72° E 20:43:09 30° SSE
Helios 1A 3.7 20:37:54 10° NNE 20:41:28 32° E 20:42:24 29° SE
Cosmos 2322 Rocket 2.7 20:36:45 10° NW 20:42:13 51° WSW 20:45:49 21° S
RESURS DK-1 3.5 20:39:43 10° NNW 20:43:22 33° NE 20:45:33 19° E
USA 306 3.0 20:45:40 10° WNW 20:47:38 26° N 20:47:38 26° N
Cosmos 2082 Rocket 4.5 20:43:32 10° W 20:48:18 26° NW 20:53:04 10° NNE
Cosmos 2195 Rocket 4.4 20:42:55 10° N 20:49:10 90° WSW 20:53:05 24° S
TSX-5 4.0 20:47:08 10° NNW 20:50:09 44° NE 20:51:15 31° ESE
NOSS 3-4 (A) 4.3 20:43:43 10° NW 20:50:13 50° WSW 20:55:06 22° S
NOSS 3-4 (C) 4.3 20:44:20 10° NW 20:50:52 50° WSW 20:55:45 22° S
Cosmos 1707 2.2 20:52:04 47° E 20:52:06 47° E 20:54:51 10° NNE
Cosmos 468 Rocket 4.4 20:50:15 28° SSE 20:52:33 44° ESE 20:57:31 10° NE
Cosmos 2026 Rocket 4.0 20:46:47 10° N 20:53:13 83° E 20:57:08 25° SSE
Geosat 4.4 20:48:45 10° NE 20:53:32 43° ESE 20:55:36 29° SSE
Cosmos 2058 Rocket 3.3 20:53:53 33° SSE 20:55:30 51° E 20:59:42 10° NNE
Cosmos 2098 Rocket 4.0 20:53:24 11° SSW 20:57:46 43° WNW 21:01:39 10° N
Cosmos 1076 Rocket 3.8 20:54:05 10° NNW 20:58:17 61° W 21:00:20 28° SSW
Cosmos 44 3.5 20:54:38 10° NW 21:00:05 83° SW 21:02:45 30° SSE
Cosmos 2237 Rocket 3.7 20:55:44 10° NNW 21:00:42 30° NE 21:05:22 11° ESE
Ariane Rocket 4.2 20:59:02 15° SSW 21:02:35 35° W 21:07:14 10° NNW
SL-16 R/B 4.2 21:09:04 10° WNW 21:12:48 18° W 21:16:32 10° SW
Meteor 1-26 Rocket 4.2 21:09:41 25° S 21:13:03 89° ESE 21:18:49 10° NNE
COSMOS 2428 2.9 21:08:50 10° NNW 21:14:32 66° ENE 21:17:37 28° SE
Cosmos 1763 Rocket 3.8 21:10:53 13° SSW 21:15:33 70° WNW 21:20:50 10° NNE
Cosmos 1470 2.9 21:12:31 10° N 21:15:42 44° ENE 21:16:07 41° E
ARIANE 5 R/B 3.4 21:15:19 28° ESE 21:17:06 42° ENE 21:21:20 10° N
ALOS 2 3.6 21:17:23 26° ESE 21:19:09 37° ENE 21:23:12 10° N
USA 290 4.1 21:18:07 11° WSW 21:20:43 27° WNW 21:23:29 10° N
Cosmos 1898 Rocket 3.5 21:16:51 10° NNW 21:22:03 72° ENE 21:24:23 33° SE
Meteor 1-11 Rocket 4.4 21:19:34 10° N 21:24:59 43° ENE 21:27:43 25° SE
Helios 1B rocket 1.9 21:24:22 57° SSE 21:25:01 88° ENE 21:28:32 10° NNW
Meteor 2-2 Rocket 4.2 21:22:13 27° SSW 21:25:30 88° WNW 21:31:21 10° NNE
ISS -3.8 21:25:00 10° WNW 21:28:15 65° SSW 21:28:15 65° SSW
BREEZE-M DEB (TANK) 3.9 21:28:01 10° W 21:28:12 12° W 21:28:12 12° W
Cosmos 1536 3.1 21:32:34 10° NNW 21:36:09 49° W 21:36:59 40° SW
CSL-04 DEB 4.0 21:36:01 59° S 21:36:38 81° WSW 21:40:18 10° NNW
SAR-Lupe-2 4.4 21:37:46 32° E 21:38:15 34° ENE 21:41:18 10° N
PSLV R/B 4.5 21:35:13 10° NNE 21:39:08 33° E 21:39:50 31° ESE
Cosmos-2242 3.6 21:37:47 27° SW 21:39:40 48° WNW 21:43:41 10° N
Cosmos 1092 Rocket 4.4 21:35:59 10° NNW 21:41:58 54° W 21:45:20 26° SSW
NOSS 0 Rocket 3.9 21:37:31 10° NNW 21:43:44 83° ENE 21:46:51 31° SE
KORONAS-FOTON 4.0 21:43:53 45° WSW 21:44:32 54° WNW 21:47:53 10° N
Cosmos 2297 Rocket 3.0 21:46:14 30° SE 21:47:33 34° ESE 21:52:35 10° NE
Cosmos 841 Rocket 3.5 21:47:27 39° S 21:49:15 64° ESE 21:54:27 10° NNE
Meteor 1-14 Rocket 4.1 21:46:52 10° NNW 21:52:26 80° W 21:54:40 37° S
Cosmos 2360 Rocket 4.2 21:49:29 10° WNW 21:53:01 17° W 21:55:44 12° SW
Cosmos 1842 3.2 21:56:49 47° W 21:57:03 49° WNW 22:00:09 10° N
Cosmos 2322 3.9 21:52:38 10° NW 21:58:13 59° WSW 22:00:18 37° S
Cosmos 1975 2.5 21:55:07 10° NNW 21:58:48 72° W 21:59:14 63° SSW
Spot 4 3.8 21:57:15 44° S 21:58:48 83° WSW 22:03:38 10° NNW
ACS3 Solar Sail 3.7 21:56:20 10° NE 21:59:52 16° E 22:02:41 12° ESE
Cosmos 1812 Rocket 3.5 22:02:59 50° SSE 22:04:01 72° E 22:08:26 10° NNE
Cosmos 2221 2.3 22:03:18 52° SSW 22:04:16 85° W 22:08:30 10° N
Cosmos 2219 Rocket 3.8 22:01:47 10° NW 22:05:56 21° W 22:08:05 17° SW
MetOp-A 4.2 22:05:00 34° SE 22:06:51 56° ENE 22:11:22 10° N
Cosmos 1271 Rocket 3.0 22:06:21 43° WSW 22:06:51 48° WNW 22:10:08 10° N
ARGOS Delta rocket 4.0 22:11:18 10° NNE 22:16:30 90° S 22:18:32 39° SSW
Cosmos 2279 Rocket 4.3 22:16:39 27° SW 22:20:06 60° WNW 22:26:19 10° N
RESURS DK-1 3.3 22:17:07 10° NW 22:20:41 32° WSW 22:20:45 32° WSW
Meteor 2-20 4.4 22:19:22 37° S 22:21:54 73° E 22:27:59 10° NNE
NOSS 8 (F) 4.3 22:19:37 10° NW 22:22:21 67° NNE 22:22:21 67° NNE
Cosmos 858 Rocket 4.5 22:21:16 10° NNW 22:26:24 67° WSW 22:27:57 44° S
Sich 1 4.5 22:23:17 10° N 22:26:53 27° ENE 22:28:30 21° ESE
Meteor 1-19 Rocket 4.4 22:24:37 33° SSW 22:27:19 72° WNW 22:33:18 10° N
Cosmos 1937 Rocket 3.9 22:23:55 10° NW 22:28:49 46° WSW 22:30:09 37° SW
CZ-2C R/B 4.4 22:28:08 10° N 22:32:26 47° WNW 22:34:15 30° WSW
SL-16 R/B 3.3 22:28:31 10° NNW 22:33:53 40° NE 22:38:56 11° ESE
GP-B 3.0 22:30:47 10° N 22:35:11 79° W 22:36:11 52° SSW
CZ-2C R/B 2.6 22:39:09 38° SSE 22:41:13 80° ENE 22:46:26 10° NNW
Lacrosse 4 Rocket 1.5 22:42:44 52° SE 22:42:54 52° ESE 22:46:53 10° NE
Cosmos 2237 Rocket 2.2 22:39:33 10° NW 22:45:12 65° WSW 22:47:09 40° S
SeaSat 1 3.1 22:42:54 20° ESE 22:46:06 52° NE 22:50:52 10° NNW
USA 234 3.3 22:39:49 10° ENE 22:46:18 60° SE 22:49:36 30° SSW
Cosmos 2266 Rocket 4.3 22:42:09 10° NNW 22:47:59 53° W 22:50:26 33° SSW
Cosmos 1980 3.9 22:43:52 10° NW 22:49:25 57° WSW 22:51:12 40° SSW
CZ-4C R/B 4.5 22:47:34 10° NW 22:52:47 30° NNE 22:59:15 10° ENE
Intercosmos 24 3.9 22:49:30 10° NNW 22:53:14 52° W 22:53:29 51° WSW
ARIANE 5 R/B 4.0 22:52:41 24° WSW 22:53:34 26° W 22:57:18 10° NW
ATLAS 2AS CENTAUR R/B 3.9 22:47:55 10° NW 22:54:19 41° NNE 23:00:43 10° E
ALOS 2 3.8 22:54:46 27° WSW 22:55:34 28° W 22:59:24 10° NW
Cosmos 2227 Rocket 2.6 22:55:49 36° SSE 22:57:38 49° ESE 23:03:06 10° NE
COSMOS 2428 4.0 22:53:46 10° NW 22:58:17 25° WSW 22:59:35 23° WSW
Meteor 2-4 Rocket 3.6 23:00:13 40° SSW 23:02:17 88° WNW 23:07:52 10° NNE
BlueWalker 3 2.3 23:05:21 43° ESE 23:05:21 43° ESE 23:08:04 10° ENE
Cosmos 2263 Rocket 3.0 23:03:56 30° SE 23:05:43 37° ESE 23:10:48 10° NE
CZ-2C R/B 3.4 23:01:03 10° N 23:06:49 74° WNW 23:09:26 34° SSW
Cosmos 1125 Rocket 4.1 23:04:02 10° NNW 23:09:16 55° ENE 23:12:45 20° SE
Cosmos 1766 Rocket 3.9 23:05:10 10° NNW 23:09:20 50° W 23:10:08 43° SW
Cosmos 1758 3.6 23:06:56 10° N 23:10:29 50° ENE 23:11:14 42° ESE
Cosmos 1238 Rocket 3.3 23:14:04 42° WSW 23:15:01 52° WNW 23:19:22 10° N
Cosmos 1655 Rocket 4.2 23:15:25 10° NNW 23:21:32 59° W 23:24:15 33° SSW
SWARM C 4.3 23:19:48 10° N 23:23:03 83° W 23:23:05 83° WSW
SWARM A 4.0 23:19:54 10° N 23:23:10 83° E 23:23:15 81° SE
Cosmos 1814 Rocket 3.9 23:21:58 39° SSW 23:23:56 89° WNW 23:29:13 10° NNE
Alouette 2 Rocket 4.2 23:23:42 10° NNW 23:27:22 42° W 23:28:19 37° SW
Meteor 2-11 Rocket 4.4 23:22:20 10° NNW 23:28:26 71° W 23:31:13 34° S
Meteor 1-27 Rocket 4.4 23:25:49 26° SW 23:28:41 46° WNW 23:34:12 10° N
Meteor 2-10 Rocket 3.8 23:24:31 10° NNW 23:29:59 60° W 23:32:13 35° SSW
Cosmos 2297 Rocket 2.9 23:27:59 22° WSW 23:31:25 49° NW 23:36:56 10° NNE
Cosmos 1340 Rocket 3.1 23:27:42 10° N 23:31:30 56° ENE 23:32:47 36° SE
CENTAUR R/B 4.2 23:31:16 12° SE 23:33:52 16° ESE 23:37:38 10° ENE
Cosmos 1151 Rocket 3.3 23:34:52 38° SSE 23:36:14 57° E 23:40:29 10° NNE
BREEZE-M DEB (TANK) 3.7 23:39:17 30° SE 23:39:17 30° SE 23:42:23 10° ESE
DELTA 2 DEB (DPAF) 3.4 23:34:52 10° NNE 23:38:27 84° ESE 23:39:02 60° S
SL-14 R/B 3.1 23:39:49 55° SSW 23:40:35 79° W 23:44:23 10° N
CZ-4C R/B 2.9 23:37:52 10° N 23:41:16 72° WNW 23:41:47 58° SW
Cosmos 1244 Rocket 4.5 23:35:42 10° NNW 23:41:48 69° W 23:44:47 32° SSW
Cosmos 158 Rocket 4.3 23:39:40 30° SW 23:42:13 60° WNW 23:47:30 10° NNE
ACS3 Solar Sail 1.7 23:37:06 10° NNE 23:43:08 83° ESE 23:46:10 31° S
Cosmos 1953 3.9 23:41:28 10° N 23:44:39 27° ENE 23:46:58 15° ESE
Landsat 5 3.9 23:43:20 10° N 23:47:16 48° WNW 23:48:28 36° WSW
Cosmos 1500 Rocket 3.5 23:44:50 10° N 23:49:18 86° W 23:50:57 38° S
IDEFIX/ARIANE 42P 3.7 23:44:50 10° NNE 23:49:37 34° E 23:52:42 19° SSE
Cosmos 1703 3.9 23:54:48 29° SE 23:55:33 34° E 23:58:30 10° NNE
